Location: Pitton
(51.0667°N, 1.7000°W)
Time: 04:08:13
(UTC+00:00)

Cosmos 2322 - Pass Details

Date: 17 September 2019
Orbit: 839 x 856 km, 71.0° (Epoch: 18 October)

Event Time Altitude Azimuth Distance (km) Brightness Sun altitude
Rises 18:51:38 0° 328° (NNW) 3,440 7.6 -6.2°
Reaches altitude 10° 18:54:06 10° 326° (NW) 2,500 6.9 -6.6°
Maximum altitude 18:59:48 67° 246° (WSW) 929 4.2 -7.4°
Drops below altitude 10° 19:05:27 10° 164° (SSE) 2,481 5.9 -8.3°
Sets 19:07:54 0° 162° (SSE) 3,412 6.5 -8.7°
